Regional Weather Roundup
Issued by NWS Spokane, WA

Home | Current Version | Previous Version | Text Only | Print | Product List | Glossary On
Versions: 1 2 3 4 5 6 7 8 9 10 11 12 13 14 15 16 17 18 19 20 21 22 23 24 25 26 27 28 29 30 31 32 33 34 35 36 37 38 39 40 41 42 43 44 45 46 47 48 49 50
000
NZUS01 KOTX 260105
RWROTX

Eastern Washington/Northern Idaho Roundup
National Weather Service, Spokane WA
600 PM PDT SUN JUN 25 2017

Note: "fair" indicated few or no clouds below 12,000 feet with no
significant weather and/or obstructions to visibility.

...Northeast Washington and Northern Idaho Panhandle...

CITY           SKY/WX    TMP DP  RH WIND       PRES   REMARKS
Spokane Intl   FAIR      92  36  14 CALM      29.98F
Spokane Downto FAIR      95  37  13 SE5       29.95F HX  90
Coeur d Alene  FAIR      91  47  21 NW6       29.99F
Deer Park      FAIR      90  39  16 CALM      29.98F
Sandpoint      FAIR      86  45  23 CALM      29.98F
Bonners Ferry  FAIR      88  45  22 CALM      30.00F

...Southeast Washington and southern Idaho Panhandle...

CITY           SKY/WX    TMP DP  RH WIND       PRES   REMARKS
Walla Walla    FAIR      98  50  19 NE10      29.85F HX  95
Pullman/Moscow FAIR      92  34  13 E6        29.99F
Lewiston       FAIR      98  45  16 E7        29.88F HX  94
Lowell           N/A     82  59  45 CALM      29.88F
Grangeville    FAIR      88  45  22 NE6       30.02F

...Columbia Basin...

CITY           SKY/WX    TMP DP  RH WIND       PRES   REMARKS
Ephrata        FAIR      97  37  12 S8        29.86F HX  92
Moses Lake     FAIR      97  38  13 VRB3      29.86F HX  92
Pasco          FAIR      97  54  23 N7        29.81F HX  95
Richland       FAIR     100  43  14 NE6       29.81F HX  96
Hermiston      FAIR     102  34   9 NE7       29.80F HX  96
Pendleton      FAIR      97  38  13 N12       29.86F HX  92

...East Slopes Cascades...

CITY           SKY/WX    TMP DP  RH WIND       PRES   REMARKS
The Dalles     FAIR     101  45  15 NE8       29.76F HX  97
Yakima         FAIR      98  40  13 SE5       29.85F HX  93
Ellensburg     FAIR      96  41  15 E8        29.90F HX  92
Stampede Pass  FAIR      82  43  25 CALM      30.06F
Wenatchee      FAIR      95  39  14 E6        29.87F HX  91
Omak           FAIR      93  42  17 SW5       29.89F
Sunnyside      FAIR      92  55  28 E3        29.83F HX  90

...Southern British Columbia...

CITY           SKY/WX    TMP DP  RH WIND       PRES   REMARKS

...Western Montana...

CITY           SKY/WX    TMP DP  RH WIND       PRES   REMARKS
Kalispell      FAIR      84  41  21 E3        30.08F
Missoula       FAIR      85  43  22 W5        30.07F

...Neighboring Cities...

CITY           SKY/WX    TMP DP  RH WIND       PRES   REMARKS
Seattle        PTSUNNY   94  54  25 NW12      29.83F HX  92
Portland       PTSUNNY   94  57  28 N7        29.77S HX  92
Boise          FAIR      97  28   8 CALM      29.97F HX  91
Great Falls    SUNNY     80  36  20 E8        30.16F



USA.gov is the U.S. government's official web portal to all federal, state and local government web resources and services.